Location: Courcelles
(49.2596°N, 1.7419°E)
Time: 21:13:03
(UTC+00:00)

Spot 4 Rocket - Pass Details

Date: 17 November 2025
Orbit: 769 x 773 km, 98.8° (Epoch: 05 December)

Event Time Altitude Azimuth Distance (km) Brightness Sun altitude
Rises 17:25:43 0° 142° (SE) 3,230 7.0 -12.4°
Reaches altitude 10° 17:28:06 10° 136° (SE) 2,308 6.2 -12.8°
Maximum altitude 17:32:52 43° 66° (ENE) 1,082 4.3 -13.6°
Drops below altitude 10° 17:37:40 10° 357° (N) 2,323 6.4 -14.3°
Sets 17:40:05 0° 350° (N) 3,255 7.2 -14.7°
